User: anonymous   Login
Location: Unspecified
(0.0000°N, 0.0000°E)
Time: 14:37:05
(UTC+00:00)
Language:

ZHOU ENLAI - Orbit

View from above orbital plane
View from above orbital plane
View from above satellite
View from above satellite

Ground track
Ground track

The orbit data is extracted from the following two-line orbital elements,

1 43156U 18008B   24064.19800961  .00073909  00000-0  14827-2 0  9998
2 43156  97.2606 118.4420 0007450 101.3388 258.8699 15.46405921338605
Epoch (UTC): 04 March 2024 04:45:08
Eccentricity: 0.0007450
inclination: 97.2606°
perigee height: 422 km
apogee height: 432 km
right ascension of ascending node: 118.4420°
argument of perigee: 101.3388°
revolutions per day: 15.46405921
mean anomaly at epoch: 258.8699°
orbit number at epoch: 33860

The dashed part of the orbit path shows where the satellite is in the earth's shadow,  

DLR